User: anonymous   Login
Location: Red Deer
(52.2681°N, 113.8112°W)
Time: 23:19:34
(UTC-06:00)
Language:

BlueWalker 3 - Orbit

View from above orbital plane
View from above orbital plane
View from above satellite
View from above satellite

Ground track
Ground track

The orbit data is extracted from the following two-line orbital elements,

1 53807U 22111AL  24145.61934803  .00008735  00000-0  34897-3 0  9997
2 53807  53.2389 302.2089 0009423  31.4564 328.6997 15.25890114 94632
Epoch (UTC): 24 May 2024 14:51:51
Eccentricity: 0.0009423
inclination: 53.2389°
perigee height: 481 km
apogee height: 494 km
right ascension of ascending node: 302.2089°
argument of perigee: 31.4564°
revolutions per day: 15.25890114
mean anomaly at epoch: 328.6997°
orbit number at epoch: 9463

The dashed part of the orbit path shows where the satellite is in the earth's shadow,  

DLR